Flag for Dominican Republic Weather past 2 weeks in Puerto Plata, Dominican Republic

Now
82 °F

Scattered clouds.


Feels Like: 88 °F
Forecast: 76 / 83 °F
Wind: 15 mph from East

Location: Puerto Plata International

Current Time: Feb 28, 2015 at 1:48:48 PM

Latest Report: Feb 28, 2015 at 1:00 PM


Visibility: N/A

Pressure: 30.12 "Hg

Humidity: 74%

Dew point: 73 °F

Location of Puerto PlataLocation

Historic Weather in Puerto Plata — Graph

°F

Puerto Plata temperature yesterday

Maximum temperature yesterday: 86 °F (at 2:00 PM)
Minimum temperature yesterday: 68 °F (at 7:00 AM)
Average temperature yesterday: 79 °F

Past Weeks' High & Low Weather Summary

 TemperatureHumidityPressure
High88 °F (Feb 18, 1:00 PM)100% (Feb 13, 11:00 PM)30.15 "Hg (Feb 13, 11:00 PM)
Low66 °F (Feb 24, 8:00 AM)52% (Feb 26, 2:00 PM)29.92 "Hg (Feb 18, 4:00 PM)
Average77 °F81%30.03 "Hg
* Reported Feb 13 1:00 PM — Feb 28 1:00 PM, Puerto Plata, Weather by CustomWeather, © 2015

Note: Actual official high and low records may vary slightly from our data, if they occured in-between our weather recording intervals... More about our weather records

Advertising

Puerto Plata weather history for previous 24 hours

 ConditionsComfort  
Time TempWeatherWind HumidityBarometerVisibility
1:00 PM
Sat, Feb 28
82 °FScattered clouds.15 mph74%30.12 "HgN/A
12:00 PM82 °FScattered clouds.17 mph70%30.15 "HgN/A
11:00 AM82 °FScattered clouds.13 mph70%30.15 "HgN/A
10:00 AM79 °FPartly sunny.12 mph79%30.15 "HgN/A
9:00 AM77 °FScattered clouds.7 mph89%30.09 "HgN/A
8:00 AM73 °FScattered clouds.5 mph94%30.09 "HgN/A
7:00 AM72 °FPassing clouds.No wind100%30.07 "HgN/A
5:00 AM70 °FPassing clouds.12 mph88%30.07 "HgN/A
2:00 AM73 °FPassing clouds.No wind83%30.09 "HgN/A
11:00 PM
Fri, Feb 27
75 °FPassing clouds.5 mph89%30.09 "HgN/A
8:00 PM77 °FPassing clouds.12 mph74%30.04 "HgN/A
7:00 PM79 °FPassing clouds.21 mph74%30.04 "HgN/A
6:00 PM81 °FPassing clouds.17 mph74%30.01 "HgN/A
5:00 PM82 °FPassing clouds.20 mph70%29.98 "HgN/A
4:00 PM84 °FPassing clouds.17 mph70%29.98 "HgN/A
3:00 PM86 °FPassing clouds.17 mph59%30.01 "HgN/A
2:00 PM86 °FPartly sunny.17 mph59%30.04 "HgN/A
1:00 PM84 °FScattered clouds.17 mph66%30.04 "HgN/A
Weather by CustomWeather, © 2015

See weather overviewHow to use our weather pages